Weather History for KMPV - May, 2013

Change the Weather History Date:

Thursday, May 16, 2013

  Actual Average Record
Temperature  
Mean Temperature 55 °F 54 °F  
Max Temperature 72 °F 66 °F 85 °F (1991)
Min Temperature 38 °F 42 °F 30 °F (1957)
Degree Days  
Heating Degree Days 10 11  
Month to date heating degree days 218  
Since 1 July heating degree days 7922  
Cooling Degree Days 0 0  
Month to date cooling degree days 0 0  
Year to date cooling degree days 0 1  
Growing Degree Days 4 (Base 50)    
Moisture  
Dew Point 40 °F    
Average Humidity 61    
Maximum Humidity 100    
Minimum Humidity 22    
Precipitation  
Precipitation 0.00 in 0.11 in 1.32 in (2007)
Month to date precipitation 0.27 1.66  
Year to date precipitation 5.35 11.20  
Sea Level Pressure  
Sea Level Pressure 29.70 in    
Wind  
Wind Speed 8 mph (NW)    
Max Wind Speed 29 mph    
Max Gust Speed 44 mph    
Visibility 6 miles    
Events Fog    
T = Trace of Precipitation, MM = Missing Value Source: NWS Daily Summary

Daily Weather History Graph

Daily Weather History Graph

Search for Another Location

Airport or City:

Trip Planner

Search our weather history database for the weather conditions in past years. The results will help you decide how hot, cold, wet, or windy it might be!

Date:

Astronomy

May. 16, 2013 Rise Set
Actual Time 5:22 AM EDT 8:11 PM EDT
Civil Twilight 4:48 AM EDT 8:45 PM EDT
Nautical Twilight 4:05 AM EDT 9:28 PM EDT
Astronomical Twilight 3:16 AM EDT 10:18 PM EDT
Moon 10:56 AM EDT (5/16) 12:27 AM EDT (5/16)
Length of Visible Light 15h 56m
Length of Day
14h 49m
Waxing Crescent, 35% of the Moon is Illuminated
May 16
Waxing Crescent
May 18
First Quarter
May 25
Full
May 31
Last Quarter
Jun 8
New

Hourly Weather History & Observations

Time (EDT) Temp. Windchill Dew Point Humidity Pressure Visibility Wind Dir Wind Speed Gust Speed Precip Events Conditions
12:51 AM 48.9 °F - 46.9 °F 93% 29.68 in 7.0 mi Calm Calm - N/A   Overcast
1:51 AM 45.0 °F 43.5 °F 44.1 °F 97% 29.68 in 4.0 mi South 3.5 mph - N/A   Mostly Cloudy
2:38 AM 44.6 °F - 44.6 °F 100% 29.66 in 1.8 mi Calm Calm - N/A   Partly Cloudy
2:48 AM 44.6 °F - 42.8 °F 93% 29.66 in 0.8 mi Calm Calm - N/A   Clear
2:51 AM 44.1 °F - 43.0 °F 96% 29.68 in 0.5 mi Calm Calm - N/A Fog Fog
3:05 AM 42.8 °F - 42.8 °F 100% 29.66 in 1.0 mi Calm Calm - N/A   Clear
3:16 AM 42.8 °F - 42.8 °F 100% 29.66 in 1.0 mi Calm Calm - N/A   Mist
3:23 AM 42.8 °F - 42.8 °F 100% 29.66 in 0.8 mi Calm Calm - N/A   Mist
3:46 AM 42.8 °F - 42.8 °F 100% 29.65 in 1.5 mi Calm Calm - N/A   Mostly Cloudy
3:51 AM 42.1 °F - 41.0 °F 96% 29.67 in 1.2 mi Calm Calm - N/A   Mostly Cloudy
3:53 AM 42.8 °F - 41.0 °F 93% 29.65 in 0.8 mi Calm Calm - N/A   Mist
4:48 AM 37.4 °F - 37.4 °F 100% 29.65 in 1.0 mi Calm Calm - N/A   Mist
4:51 AM 37.9 °F - 37.9 °F 100% 29.67 in 1.0 mi Calm Calm - N/A   Mist
4:57 AM 41.0 °F - 39.2 °F 93% 29.65 in 2.0 mi Calm Calm - N/A   Partly Cloudy
5:04 AM 41.0 °F - 41.0 °F 100% 29.65 in 1.0 mi Calm Calm - N/A   Mist
5:11 AM 41.0 °F - 39.2 °F 93% 29.65 in 0.2 mi Calm Calm - N/A Fog Fog
5:35 AM 39.2 °F - 39.2 °F 100% 29.65 in 1.2 mi Calm Calm - N/A   Partly Cloudy
5:38 AM 39.2 °F - 39.2 °F 100% 29.66 in 2.5 mi Calm Calm - N/A   Partly Cloudy
5:51 AM 41.0 °F - 41.0 °F 100% 29.68 in 9.0 mi Calm Calm - N/A   Clear
6:51 AM 46.9 °F - 45.0 °F 93% 29.69 in 10.0 mi Calm Calm - N/A   Clear
7:51 AM 55.9 °F - 44.1 °F 64% 29.68 in 10.0 mi East 3.5 mph - N/A   Clear
8:51 AM 60.1 °F - 42.1 °F 51% 29.69 in 10.0 mi WNW 8.1 mph - N/A   Clear
9:51 AM 63.0 °F - 39.0 °F 41% 29.68 in 10.0 mi WSW 8.1 mph 16.1 mph N/A   Clear
10:51 AM 64.9 °F - 36.0 °F 34% 29.68 in 10.0 mi WNW 10.4 mph 18.4 mph N/A   Clear
11:51 AM 68.0 °F - 34.0 °F 28% 29.67 in 10.0 mi WNW 16.1 mph 31.1 mph N/A   Clear
12:51 PM 70.0 °F - 32.0 °F 25% 29.65 in 10.0 mi WNW 15.0 mph 39.1 mph N/A   Mostly Cloudy
1:51 PM 72.0 °F - 30.0 °F 21% 29.65 in 10.0 mi West 19.6 mph 32.2 mph N/A   Mostly Cloudy
2:51 PM 71.1 °F - 32.0 °F 24% 29.65 in 10.0 mi West 9.2 mph 35.7 mph N/A   Mostly Cloudy
3:51 PM 66.0 °F - 34.0 °F 30% 29.68 in 10.0 mi NW 12.7 mph 23.0 mph N/A   Overcast
4:51 PM 66.0 °F - 39.0 °F 37% 29.71 in 10.0 mi North 9.2 mph 20.7 mph N/A   Mostly Cloudy
5:51 PM 60.1 °F - 41.0 °F 49% 29.75 in 10.0 mi NNW 10.4 mph 20.7 mph N/A   Overcast
6:51 PM 55.9 °F - 41.0 °F 57% 29.79 in 10.0 mi NW 9.2 mph - N/A   Overcast
7:51 PM 54.0 °F - 39.9 °F 59% 29.82 in 10.0 mi NW 9.2 mph - N/A   Overcast
8:51 PM 52.0 °F - 37.9 °F 59% 29.86 in 10.0 mi NNW 6.9 mph - N/A   Overcast
9:51 PM 52.0 °F - 37.0 °F 57% 29.89 in 10.0 mi NNW 5.8 mph - N/A   Overcast
10:51 PM 50.0 °F - 37.0 °F 61% 29.90 in 10.0 mi NNW 9.2 mph - N/A   Overcast
11:51 PM 48.9 °F - 37.9 °F 66% 29.91 in 10.0 mi NNW 11.5 mph 18.4 mph N/A   Overcast